Regional Weather Roundup
Issued by NWS

Home | Current Version | Previous Version | Text Only | Print | Product List | Glossary Off
Versions: 1 2 3 4 5 6 7 8 9 10 11 12 13 14 15 16 17 18 19 20 21 22 23 24 25 26 27 28 29 30 31 32 33 34 35 36 37 38 39 40 41 42 43 44 45 46 47 48 49

000
ASUS45 KCYS 011810
RWRWY

WYOMING REGIONAL WEATHER ROUNDUP
NATIONAL WEATHER SERVICE CHEYENNE WY
1200 PM MDT TUE SEP 01 2015

NOTE:  "FAIR" INDICATES FEW OR NO CLOUDS BELOW 12,000 FEET
WITH NO SIGNIFICANT WEATHER AND/OR OBSTRUCTIONS TO VISIBILITY.

WYZ001-011900-
YELLOWSTONE NATIONAL PARK

CITY           SKY/WX    TMP DP  RH WIND       PRES   REMARKS
LK YELLOWSTONE   N/A     68  27  21 VRB5      30.20F
6HR MIN TEMP:  31; 6HR MAX TEMP:  68;

W YELLOWSTONE  NOT AVBL

$$
WYZ002>013-054>058-071-098>099-011900-
NORTHERN WYOMING

CITY           SKY/WX    TMP DP  RH WIND       PRES   REMARKS
JACKSON        FAIR      66  36  32 CALM      30.12F
CODY           FAIR      82  30  15 W7        29.96F
GREYBULL       FAIR      81  35  19 SE6       29.91F
6HR MIN TEMP:  50; 6HR MAX TEMP:  81;

WORLAND        FAIR      84  36  18 VRB5      29.93F
6HR MIN TEMP:  46; 6HR MAX TEMP:  84;

SHERIDAN       FAIR      87  36  16 E6        29.89F
6HR MIN TEMP:  47; 6HR MAX TEMP:  87;

BUFFALO        FAIR      84  31  14 E7        29.97F
6HR MIN TEMP:  56; 6HR MAX TEMP:  85;

GILLETTE       FAIR      85  32  15 W8        29.93F
6HR MIN TEMP:  57; 6HR MAX TEMP:  86;

HULETT         FAIR      81  46  30 W12       29.94F
NEWCASTLE        N/A     79  41  25 SE5       29.96F

$$
WYZ014>020-022>026-101>103-011900-
CENTRAL WYOMING

CITY           SKY/WX    TMP DP  RH WIND       PRES   REMARKS
BIG PINEY      FAIR      70  33  25 VRB6      30.18F
6HR MIN TEMP:  34; 6HR MAX TEMP:  70;

PINEDALE       FAIR      70  32  24 S5        30.19F
DUBOIS         FAIR      73  25  16 W18G30    30.13F
LANDER         FAIR      78  31  17 VRB5      30.04F
6HR MIN TEMP:  52; 6HR MAX TEMP:  78;

RIVERTON       FAIR      76  41  28 E6        30.05F
6HR MIN TEMP:  48; 6HR MAX TEMP:  76;

CASPER         FAIR      85  24  11 W18G28    30.03F
6HR MIN TEMP:  58; 6HR MAX TEMP:  85;

DOUGLAS        FAIR      87  32  14 W16       30.02F
6HR MIN TEMP:  49; 6HR MAX TEMP:  87;


$$
WYZ021-027>030-104>119-011900-
SOUTHERN WYOMING

CITY           SKY/WX    TMP DP  RH WIND       PRES   REMARKS
EVANSTON       FAIR      77  38  24 SW24G32   30.20S
6HR MIN TEMP:  53; 6HR MAX TEMP:  79;

KEMMERER       FAIR      77  32  19 SW22G29   30.20F
FORT BRIDGER   CLEAR     81  34  18 W22G30    30.22S
ROCK SPRINGS   FAIR      75  39  27 SW8       30.18F
6HR MIN TEMP:  53; 6HR MAX TEMP:  75;

DIXON          FAIR      76  47  36 S14G20    30.23F
RAWLINS        FAIR      78  35  21 SW16      30.19F
6HR MIN TEMP:  48; 6HR MAX TEMP:  79;

SARATOGA       FAIR      77  34  20 W13G21    30.22F
LARAMIE        FAIR      76  34  21 W16G23    30.21F
6HR MIN TEMP:  44; 6HR MAX TEMP:  77;

CHEYENNE       FAIR      83  37  19 W12       30.13F
6HR MIN TEMP:  53; 6HR MAX TEMP:  83;

TORRINGTON     FAIR      86  46  24 MISG      29.97F
6HR MIN TEMP:  51; 6HR MAX TEMP:  87;

PINE BLUFFS    FAIR      86  36  16 NE6       30.07F

$$



USA.gov is the U.S. government's official web portal to all federal, state and local government web resources and services.